GFSNIL_con_mucape_084.txt.gz
CAPE
2063 1715 1656 1329 788 1247 1305 1506 1626 2663 2104 1894 1933 2234 2245 1585 1472 1682 1611 1971 2189 1168
2070 1980 1322 1127 1425 1246 1259 1300 1971 2297 1599 1787 2035 2367 2503 1708 2177 2078 2102 1870 2193 2039
1825 1996 1864 1580 1522 1477 983 1656 1638 2403 2425 1880 2294 2405 2515 1906 2233 2104 1580 1531 1881 2334
1514 1598 1770 1598 1520 1532 1542 1739 2332 2396 2472 2033 2229 2530 2730 2132 1943 1937 1892 2004 2220 2482
1582 1540 1423 1554 1349 1382 1636 1609 2109 2439 2567 2383 2110 2454 2727 2255 1510 2164 2178 2044 2231 2337
1398 1490 1418 1298 1433 1395 1519 1652 1631 1984 2375 2321 2020 2421 2967 2633 2392 2371 2180 2278 2343 2220
1061 1097 1122 1293 1297 1376 1564 1570 1429 1660 1898 2171 2186 1838 2315 2701 2787 2558 2655 2688 2564 2322
1331 1251 1154 1542 1216 1246 1498 1603 1621 1494 1464 1668 1800 1892 2065 2201 2699 2915 2891 2757 2838 2615
1304 1375 1504 1577 1473 1256 1512 1697 1748 1720 1491 1285 806 593 954 1693 2776 2421 2925 2729 2821 2824
1433 1523 1589 1483 1643 1715 1518 1438 1929 1773 1702 1909 1870 398 288 690 1455 1747 2421 2695 2511 2373
370 915 1439 1678 1887 1655 1614 1639 1640 1689 1973 2022 1938 946 529 357 1252 1892 2444 2472 2365 2853
119 233 594 1428 1593 1846 1811 1987 1602 1569 1711 2079 2043 1124 758 531 1016 1043 1986 2403 2823 3103
191 132 325 558 1082 1936 2677 1651 1544 1535 1665 1380 1871 1385 1027 609 917 985 799 1513 2643 1766
174 195 149 195 324 899 1797 2089 2425 2171 2029 2056 1666 1677 1073 850 988 970 985 860 686 648

GFSNIL_con_mucape_087.txt.gz
CAPE
2391 1794 1265 1513 2281 1022 2560 1291 3519 2610 2217 2072 1970 1930 2168 1978 1538 2477 1710 2067 3120 2492
2870 2569 1800 2470 1889 1518 1698 1512 1744 1854 1967 1982 2042 2142 2306 2037 2013 2221 2039 2202 2153 2075
2182 2402 2225 1538 1835 1656 1871 1266 1075 2001 2088 2038 1993 2000 2372 2935 2782 2012 1965 1346 3374 3042
2068 2120 2309 2009 1796 1818 1618 1711 1748 2711 2080 2436 2322 2383 2845 3275 2325 2346 2269 2612 2182 2803
1873 2029 1947 2200 2013 2244 2248 1791 2101 1966 2271 2211 2301 2887 2788 2234 1710 1885 2040 1990 2333 2103
1949 1902 1867 2126 2048 2248 2209 2270 1505 2070 2946 2137 2234 2833 2635 2670 2603 2093 2205 2162 2572 2300
1859 1965 1959 2462 2249 1905 2649 2371 2179 2407 2891 2760 2378 2260 2256 2588 2910 3014 2648 2658 2689 2596
1753 1811 1793 1862 1980 1834 2690 2618 2447 2644 2534 2715 1970 1756 2819 2769 2720 3230 2857 3371 3101 3096
1407 1761 2281 2110 1908 1967 1802 2746 3401 2879 2729 2617 1247 530 703 1828 2565 3092 3122 3102 3387 3814
636 811 1038 1674 2430 2670 2787 2417 3190 3334 3014 3187 3091 1177 194 563 1545 2483 3183 3448 3387 3319
443 615 768 941 1657 2391 2439 2446 3021 2691 3305 3465 3046 1711 1046 287 1561 2052 2549 2905 3579 3618
142 209 261 780 807 1034 2151 2722 2293 2487 2768 3214 3314 1967 1397 1040 1307 1198 1899 2368 2672 3012
52 75 119 120 182 416 615 1774 2695 2271 2534 2235 2991 2272 1797 1377 1366 1745 1511 2117 2244 1254
0 0 52 78 145 267 320 308 1438 2229 2877 2637 2279 2636 1687 1504 1860 1558 1607 1627 1614 1677

GFSNIL_con_mucape_093.txt.gz
CAPE
790 827 457 643 358 734 765 1041 1307 1436 1689 1434 1577 1504 1619 1186 1642 1357 1468 1266 1534 1790
1120 871 984 981 1227 705 1014 1757 1905 1546 1797 1800 1461 1292 1624 1508 1785 1253 1305 1097 1846 1532
1440 1108 1172 1503 1603 1200 778 929 1129 1135 1745 1733 1704 1296 1507 1287 1373 1403 1492 1608 1157 1585
1785 1697 1582 1566 1755 1577 830 685 463 612 1056 1102 1331 1589 1389 1356 1292 1091 1287 1389 1766 1136
2042 1912 1797 1824 2115 1480 1087 962 929 723 402 869 898 1633 1714 1499 1459 1135 1031 1278 1529 1272
2094 2037 1840 1899 2109 2120 1876 1161 1045 1018 1124 944 1281 1742 1498 1335 1322 1553 1237 1457 1562 1659
618 1206 1816 2221 2165 2382 2298 2119 1816 1723 1527 1926 1841 1646 1967 1581 1251 1375 1408 1815 1970 1772
253 480 629 654 1655 1982 2125 2361 2058 1650 1723 2223 2087 1621 1885 1954 1878 1574 1474 1463 1668 1954
72 238 96 91 853 1512 1685 1832 2006 2150 2054 1842 1931 1998 1647 1797 1711 2121 1895 1593 1663 1986
115 65 165 248 537 943 1103 1484 1603 1506 1416 1711 2083 1834 1434 1281 1024 1670 1875 2067 1995 1667
129 134 220 305 429 561 760 987 1054 1179 1569 1562 1560 1753 1798 1771 1427 1312 1115 1383 2089 2057
71 82 84 122 306 263 428 515 593 683 768 1303 1372 1523 1736 1732 1745 1505 1409 1308 1100 1657
0 0 0 21 58 76 87 185 241 283 356 643 1097 1092 1168 1182 1344 1274 1286 1393 1382 1249
0 0 0 0 0 0 32 61 56 77 89 257 633 536 630 821 958 966 1180 1283 1374 1400

GFSNIL_con_mucape_096.txt.gz
CAPE
595 443 512 614 667 740 827 1155 1081 1306 1189 1228 998 985 1354 1312 1381 1280 1214 1082 995 1068
678 728 590 494 474 433 602 868 1067 1169 1424 1393 1336 1270 1506 1379 1533 1508 1027 946 1221 1478
703 658 557 544 748 953 806 1129 1357 1325 1311 1573 1549 1262 1356 1408 1169 1254 1085 1277 1452 1049
1251 1116 607 848 1228 1164 926 1001 1242 1120 1155 1469 1595 1589 1145 1207 1193 1255 1141 1215 1242 1568
949 1163 1264 1164 1278 1047 925 692 1050 801 841 996 1171 1231 1531 1279 1241 1130 948 977 960 1152
643 1064 1054 1395 1475 1346 1190 781 669 731 608 642 791 903 1221 1575 1392 1323 1525 1065 927 1234
250 418 846 1141 1169 1292 1346 1117 916 869 873 927 832 859 1208 1632 1339 1140 1101 1356 1360 1621
74 181 198 260 382 877 1221 1412 1480 1426 1430 1496 1417 1632 1621 1543 1686 1576 1394 1350 1140 1342
52 69 127 134 68 417 796 1378 1429 1615 1566 1390 1449 2032 1813 1612 1448 1617 1707 1603 1451 1475
69 28 27 92 70 237 533 666 963 1356 1489 1510 1502 1664 1700 1611 1403 1409 1343 1483 1553 1553
99 78 86 81 123 221 246 301 653 814 1018 1175 1309 1443 1540 1545 1458 1274 1239 1164 1160 1419
147 147 114 147 124 131 180 140 217 478 692 771 804 943 974 1189 1417 1534 1425 1369 1326 1257
0 0 27 103 110 85 91 88 114 125 175 272 263 414 710 532 825 986 969 1044 1068 1060
0 0 0 0 0 0 3 38 48 52 52 172 195 333 350 378 536 625 738 826 873 968

GFSNIL_con_mucape_102.txt.gz
CAPE
405 226 259 284 334 436 443 612 733 938 926 874 751 408 482 824 1075 956 978 935 866 1151
329 313 312 176 313 440 551 585 671 845 820 845 835 543 946 1002 953 1095 1066 823 777 1151
346 361 377 404 429 480 556 508 513 601 750 841 910 900 832 1079 1190 1123 1063 909 961 1145
275 398 452 470 307 357 477 591 568 615 776 965 930 1065 1092 1022 1021 1144 958 897 961 1091
306 447 413 388 421 391 684 666 657 718 786 933 878 1075 1100 1062 1041 984 943 952 835 825
584 616 501 530 608 704 674 749 596 524 639 776 745 837 903 954 1149 1081 1017 800 791 956
190 171 179 152 266 452 610 766 633 598 544 601 520 438 502 570 910 1103 1101 1064 929 898
85 68 0 46 65 101 235 504 767 903 849 887 843 763 665 654 615 1082 1137 1240 1309 1229
41 67 53 44 42 30 43 80 265 511 745 938 970 992 1074 1125 1083 1235 1364 1476 1525 1384
126 69 26 2 18 41 37 54 78 87 197 391 606 783 846 992 1055 984 1172 1266 1301 1335
103 89 66 11 28 53 43 48 57 50 66 101 199 248 349 476 568 810 913 883 864 855
99 67 21 32 20 73 28 27 61 34 114 104 96 123 140 203 311 414 448 555 655 660
60 35 4 2 21 80 56 64 36 61 67 57 50 64 95 137 153 208 262 301 341 437
49 52 91 54 119 121 62 103 99 36 54 54 15 5 22 40 43 38 46 79 135 204

GFSNIL_con_mucape_105.txt.gz
CAPE
1047 992 879 972 1044 1237 1525 1914 1817 2099 2081 1627 1688 1522 1587 1893 2130 2138 2020 2254 2228 1805
905 876 921 1128 1191 1226 1480 1268 1606 1849 1947 1818 1863 1609 1497 1814 2102 2287 2207 1991 2071 1967
1102 1056 1092 1067 1211 1304 1328 1558 1505 1665 1820 1997 2013 2033 2030 2267 2379 2386 2062 1781 2072 2376
1204 1148 1255 1199 1134 1264 1294 1386 1252 1509 1490 1679 1988 2001 2290 2161 2198 2289 2320 2012 2134 2140
913 1088 1165 1255 1225 1119 1218 1565 1663 1717 1808 1953 1835 1966 2298 2089 1975 2141 2013 1961 1990 2009
1033 1168 1337 1263 1335 1591 1511 1691 1594 1351 1602 1682 1882 1993 2130 2144 2124 2088 2000 1948 1860 1739
591 625 532 582 700 1052 1416 1654 1548 1394 1256 1309 1132 1042 1087 1284 1380 1622 1517 1987 1968 1916
65 183 199 234 229 419 760 1017 1426 1620 1473 1196 887 760 924 1002 1177 1177 1729 1862 1875 2009
56 155 87 98 67 123 242 344 711 1031 1263 1268 990 661 775 849 1806 1994 2231 2181 2389 2225
49 12 40 70 73 43 78 133 191 295 502 513 286 379 431 577 1465 1668 1748 1814 1893 1813
129 95 71 37 32 78 36 19 121 263 322 68 98 168 231 285 1091 1226 799 743 709 871
82 73 96 89 50 54 59 43 110 156 71 59 36 51 112 178 226 247 251 269 315 418
112 93 71 0 0 1 18 33 77 49 19 29 50 23 21 43 60 60 66 69 60 44
158 135 118 47 15 1 59 47 45 18 9 38 30 32 16 25 25 7 17 6 6 0

GFSNIL_con_mucape_108.txt.gz
CAPE
1366 793 1567 1317 1157 1028 2325 1119 1469 1505 1241 1563 2046 1943 2182 1974 1804 1672 1850 2193 2516 1718
1337 927 1995 1014 1975 1381 1545 1458 1603 1493 1491 1660 1581 2016 2047 1540 1811 1987 2220 1634 1987 2058
889 1283 1091 965 726 1328 1625 1831 1596 1479 1463 1679 2060 2206 1967 1598 1584 1882 1670 1497 1818 1932
894 711 1273 1247 908 1005 1358 2115 1459 1455 1513 1330 1612 2028 2160 1861 1477 1744 1836 1726 1920 1852
924 776 635 1001 817 1082 992 1595 1336 1360 1745 1481 1559 1825 1873 1692 1395 1737 1688 1665 1718 1707
1174 688 806 855 1127 1051 1150 1030 1202 1445 1272 1104 1323 1404 1417 1605 1559 1596 1352 1267 1398 1589
1143 653 960 1050 1298 1097 996 1215 1087 1059 1257 1142 1476 1276 1411 1346 1285 1350 1328 1406 1351 1428
1056 1233 1103 1216 1201 1269 1452 1393 1394 1186 1299 1431 1427 1072 1717 1710 1708 1835 1631 1694 1678 1440
120 148 521 683 713 836 978 1193 1536 1548 1416 1337 1042 592 580 736 2071 1831 1815 1751 1761 1653
32 33 29 37 198 486 587 654 759 1081 1225 332 233 266 303 394 1455 1805 1665 1721 1904 1819
64 72 36 37 32 98 275 412 552 346 152 44 56 144 207 646 1330 1190 995 539 420 514
113 129 61 18 16 14 40 248 289 149 42 35 19 65 147 116 251 202 183 81 108 97
102 110 107 96 85 32 11 17 97 106 56 44 37 21 27 37 37 28 2 0 3 5
175 90 89 19 3 0 2 33 72 61 50 55 37 19 14 58 66 54 16 3 0 0

GFSNIL_con_mucape_111.txt.gz
CAPE
1259 934 1087 1079 993 861 1399 930 2506 1628 1885 1704 1936 2048 2216 2026 1992 2311 1917 2176 3043 2407
1315 1068 1182 1395 1537 2066 1501 1653 1475 1219 1386 1636 1919 1935 2186 1826 1849 2297 2165 1905 2157 2241
938 1107 1069 1236 1134 1578 647 1994 2070 1401 1320 1533 1684 2001 2116 2637 1962 1863 1791 1415 2436 2162
732 684 986 1087 1106 1267 1404 1589 1782 1720 1560 1679 1769 1738 1937 2704 2423 1835 1768 1809 1803 1672
1218 814 562 776 945 1123 1425 1497 1620 1795 1779 1641 1727 2387 1947 1713 1772 1897 1618 1628 1522 1364
2240 1203 831 645 677 978 1540 1662 1426 1530 1777 2072 1901 2141 2166 1952 1845 1734 1935 1956 1998 1444
1823 1486 1070 1190 751 814 1154 1433 1531 1622 1507 1499 1745 1827 1746 1685 1762 1650 1356 1282 1276 1617
1885 2268 1525 1443 1214 973 1088 1204 1201 1353 1391 1413 1396 1147 1304 1636 1755 1834 1575 1442 1511 1563
1210 824 1444 1650 1345 1610 1169 1269 1234 1187 1265 1400 567 393 406 596 1587 1639 1795 1714 1737 1227
317 341 407 325 684 1067 975 1061 1189 1275 953 618 483 216 237 292 891 1635 1616 1812 2177 1979
41 32 30 75 129 118 269 818 1007 375 289 128 146 143 201 415 1565 1039 847 715 600 458
97 108 76 69 29 16 163 177 137 113 59 55 52 131 177 397 860 618 248 108 107 70
193 126 108 166 168 253 82 79 49 41 53 73 69 58 81 87 114 199 131 72 1 0
110 84 115 151 103 47 43 20 56 31 19 62 50 63 57 36 45 21 39 54 49 22

GFSNIL_con_mucape_114.txt.gz
CAPE
1915 1768 1724 1891 1487 889 957 2239 2657 2238 2535 2691 2833 2766 2919 3104 2755 2742 3262 3897 4038 3252
2289 2239 2016 2042 264 687 1939 1802 2197 2541 2336 2614 2345 3000 2844 2790 3157 2140 3022 2922 3365 3272
2027 2187 2551 2332 2200 1654 1353 249 47 1834 2340 2264 2076 2812 2715 2064 2027 2523 2760 2292 2353 3285
1317 1432 2197 2206 2490 2580 546 87 1653 2331 2259 2339 2641 2603 2674 2246 2353 1937 2953 2930 2861 2467
1548 1661 1551 1914 2042 1984 2226 1682 1944 2750 3042 2763 2392 2063 2528 2822 1699 1817 1932 2332 2642 2528
1470 1647 1980 1785 1998 2388 2604 2820 2283 2333 2806 2652 2484 2443 2211 2732 2682 2221 2318 2122 1946 1190
1751 1142 949 1743 2282 1962 2823 2329 2165 2079 2042 2785 2057 1937 2037 2225 1801 2676 2194 2544 2010 1939
903 790 1181 1022 1602 2367 1909 2489 2070 1788 1882 1978 879 661 521 655 915 1601 1620 2166 1626 1589
926 898 418 421 629 1622 1694 1680 1837 1571 1390 503 554 331 179 300 753 815 645 1222 1529 555
455 252 266 288 437 278 863 1010 1004 855 483 343 198 145 114 121 747 1698 1723 1247 1086 944
151 170 160 236 251 161 230 332 506 318 186 114 68 83 79 207 1265 1319 603 365 558 288
134 33 4 25 76 80 58 143 55 17 8 18 33 73 74 597 1309 264 119 71 66 53
40 74 128 24 1 1 18 10 14 3 1 1 33 85 91 151 344 273 102 26 17 8
71 126 122 43 17 8 0 18 24 25 33 21 20 41 80 80 85 79 46 24 17 35

GFSNIL_con_mucape_117.txt.gz
CAPE
184 35 553 755 605 497 543 636 964 1175 1185 1427 1528 1216 1661 1480 1763 1597 1996 1802 1796 2071
796 756 623 775 443 264 839 1229 1165 1034 1042 997 1378 1229 1504 1516 1371 1247 1817 1589 1577 1866
750 866 848 734 212 617 568 741 677 841 985 1016 1274 1487 1438 1286 1132 1410 1411 1365 1219 1733
772 1043 740 1099 851 831 492 344 0 421 675 853 1082 1006 1141 1067 838 1014 1131 1249 1349 1340
958 787 1055 715 908 988 648 98 596 674 1033 1033 1077 1434 1313 1448 1139 989 1060 1365 1175 1084
615 790 783 961 824 896 688 654 873 940 1351 1273 1262 1117 907 879 1093 1179 1024 996 932 994
537 617 771 863 836 766 1039 1017 1057 1148 1045 1068 810 616 969 860 1140 851 1048 906 1062 1094
388 447 553 487 424 594 982 849 726 723 744 436 659 680 535 572 657 515 331 443 531 575
278 339 291 328 388 391 270 435 703 658 406 358 409 263 292 156 201 201 78 5 78 395
309 191 160 148 163 278 274 224 230 372 436 436 239 158 85 148 120 221 179 87 430 341
123 110 123 70 37 137 136 81 162 198 173 62 104 37 14 138 406 257 253 261 195 125
49 49 42 93 22 72 63 94 149 56 33 21 18 1 117 449 200 148 72 67 79 64
63 3 1 0 0 2 62 34 37 27 7 16 0 7 56 164 117 92 56 63 65 56
73 39 23 0 0 1 1 0 0 0 3 11 0 10 34 72 98 95 81 63 46 11

GFSNIL_con_mucape_123.txt.gz
CAPE
182 268 309 479 602 552 586 630 629 941 841 560 541 906 1262 1272 1150 1190 1226 1176 1213 923
255 240 240 419 534 481 403 442 490 772 880 615 827 940 1118 1166 842 859 1232 1057 986 1157
337 316 199 359 462 436 403 413 794 552 792 817 921 880 802 990 1105 728 1112 991 910 1071
276 208 269 507 574 561 322 555 631 640 658 552 614 714 947 988 868 680 821 842 794 737
384 284 545 659 504 399 312 455 541 611 530 507 659 735 882 956 778 525 620 571 705 764
612 359 420 636 522 631 269 535 326 393 345 298 628 702 777 795 745 979 585 723 729 790
598 406 390 561 487 580 583 672 497 134 315 652 825 881 856 881 861 819 967 770 589 574
515 608 471 427 501 579 596 696 521 497 608 622 611 767 737 754 591 686 761 667 432 377
686 666 550 615 452 307 443 496 442 636 820 767 360 445 340 319 312 438 433 497 389 311
285 262 183 135 143 155 197 213 249 290 251 233 317 264 110 173 223 263 256 203 130 63
125 123 72 77 44 63 80 123 167 176 187 166 150 159 115 102 132 94 74 73 62 30
69 72 71 90 73 52 51 23 27 86 107 115 103 44 97 126 167 125 125 112 92 80
135 99 101 59 50 54 37 29 74 72 88 122 123 67 57 62 101 30 27 50 74 79
103 96 76 47 41 28 37 53 60 127 111 98 59 57 21 15 9 6 18 52 75 80